Retour au catalogue

KUIPER-00215

ActifCommunicationsLEO
NORAD 67779·PAYLOAD·🇺🇸 United States

Lancé Feb 12, 2026 depuis Guiana Space Centre

Loading…

Prochains Passages (prochaines 24 heures)

TLE

FraisSource: CelesTrak SupGP

Époque: Sep 15, 2026, 00:33 UTC

1 67779C 26030R   26258.02307870  .00005741  00000+0  75164-3 0  2587
2 67779  51.8978  73.3136 0000687 108.9837 215.4179 14.79914772    17

Suivez KUIPER-00215 en temps réel avec AllMySat

Download on the App Store